Track COSMOS 2502 now! 10-day predictions COSMOS 2502 is classified as:
1 40358U 14086A 26248.20801453 .00000144 00000-0 15482-3 0 9996 2 40358 67.1527 172.4242 0006327 245.3828 114.6598 13.97831792595139